Bullhead City, AZ

1:14 AM MST on October 23, 2017 (GMT -0700)
Laughlin-Bullhead International

Weather History for KIFP - October, 2013

Change the Weather History Date:

Wednesday, October 30, 2013

  Actual Average Record
Temperature  
Mean Temperature 62 °F -  
Max Temperature 69 °F 76 °F 93 °F (1990)
Min Temperature 55 °F 57 °F 48 °F (1991)
Degree Days  
Heating Degree Days 3    
Growing Degree Days 12 (Base 50)    
Moisture  
Dew Point 33 °F    
Average Humidity 35    
Maximum Humidity 55    
Minimum Humidity 20    
Precipitation  
Precipitation 0.00 in - - ()
Sea Level Pressure  
Sea Level Pressure 30.01 in    
Wind  
Wind Speed 6 mph (NNE)    
Max Wind Speed 16 mph    
Max Gust Speed 20 mph    
Visibility 10 miles    
Events      
Averages and records for this station are not official NWS values.
T = Trace of Precipitation, MM = Missing Value Source: NWS Daily Summary

Daily Weather History Graph

Daily Weather History Graph

Search for Another Location

Airport or City:

Trip Planner

Search our weather history database for the weather conditions in past years. The results will help you decide how hot, cold, wet, or windy it might be!

Date:

Astronomy

Oct. 30, 2013 Rise Set
Actual Time 6:57 AM MST 5:45 PM MST
Civil Twilight 6:31 AM MST 6:11 PM MST
Nautical Twilight 6:01 AM MST 6:41 PM MST
Astronomical Twilight 5:32 AM MST 7:10 PM MST
Moon 2:59 AM MST (10/30) 3:25 PM MST (10/30)
Length of Visible Light 11h 39m
Length of Day
10h 47m
Waning Crescent, 16% of the Moon is Illuminated
Oct 30
Waning Crescent
Nov 3
New
Nov 9
First Quarter
Nov 17
Full
Nov 25
Last Quarter

Hourly Weather History & Observations

Time (MST) Temp. Dew Point Humidity Pressure Visibility Wind Dir Wind Speed Gust Speed Precip Events Conditions
12:15 AM 57.2 °F 32.0 °F 38% 29.93 in 10.0 mi Calm Calm - N/A   Overcast
12:35 AM 59.0 °F 32.0 °F 36% 29.93 in 10.0 mi Calm Calm - N/A   Overcast
12:55 AM 59.0 °F 32.0 °F 36% 29.93 in 10.0 mi Calm Calm - N/A   Overcast
1:15 AM 59.0 °F 32.0 °F 36% 29.94 in 10.0 mi Calm Calm - N/A   Mostly Cloudy
1:35 AM 59.0 °F 37.4 °F 45% 29.94 in 8.0 mi Calm Calm - N/A   Mostly Cloudy
1:55 AM 59.0 °F 42.8 °F 55% 29.95 in 10.0 mi Calm Calm - N/A   Mostly Cloudy
2:15 AM 59.0 °F 41.0 °F 51% 29.95 in 10.0 mi East 9.2 mph - N/A   Mostly Cloudy
2:35 AM 60.8 °F 39.2 °F 45% 29.95 in 10.0 mi NNE 5.8 mph - N/A   Mostly Cloudy
2:55 AM 59.0 °F 41.0 °F 51% 29.95 in 10.0 mi SSW 5.8 mph - N/A   Mostly Cloudy
3:15 AM 59.0 °F 41.0 °F 51% 29.95 in 10.0 mi East 4.6 mph - N/A   Partly Cloudy
3:35 AM 59.0 °F 37.4 °F 45% 29.95 in 10.0 mi NE 8.1 mph - N/A   Partly Cloudy
3:55 AM 59.0 °F 37.4 °F 45% 29.95 in 10.0 mi NNE 10.4 mph - N/A   Mostly Cloudy
4:15 AM 59.0 °F 37.4 °F 45% 29.96 in 10.0 mi NNE 12.7 mph - N/A   Mostly Cloudy
4:35 AM 59.0 °F 37.4 °F 45% 29.96 in 10.0 mi NNE 15.0 mph - N/A   Overcast
4:55 AM 59.0 °F 39.2 °F 48% 29.97 in 10.0 mi NE 11.5 mph - N/A   Mostly Cloudy
5:15 AM 59.0 °F 39.2 °F 48% 29.97 in 10.0 mi NNE 10.4 mph - N/A   Mostly Cloudy
5:35 AM 59.0 °F 37.4 °F 45% 29.98 in 10.0 mi NNE 10.4 mph - N/A   Mostly Cloudy
5:55 AM 59.0 °F 37.4 °F 45% 29.98 in 10.0 mi NE 9.2 mph - N/A   Partly Cloudy
6:15 AM 57.2 °F 37.4 °F 48% 29.99 in 10.0 mi NE 9.2 mph - N/A   Clear
6:35 AM 57.2 °F 37.4 °F 48% 29.99 in 10.0 mi NE 6.9 mph - N/A   Clear
6:55 AM 57.2 °F 39.2 °F 51% 30.00 in 10.0 mi North 4.6 mph - N/A   Clear
7:15 AM 57.2 °F 39.2 °F 51% 30.01 in 10.0 mi North 6.9 mph - N/A   Clear
7:35 AM 57.2 °F 37.4 °F 48% 30.01 in 10.0 mi North 9.2 mph - N/A   Clear
7:55 AM 57.2 °F 37.4 °F 48% 30.03 in 10.0 mi NNE 6.9 mph - N/A   Clear
8:15 AM 59.0 °F 39.2 °F 48% 30.03 in 10.0 mi NNE 13.8 mph - N/A   Clear
8:35 AM 59.0 °F 39.2 °F 48% 30.05 in 10.0 mi North 12.7 mph - N/A   Clear
8:55 AM 59.0 °F 37.4 °F 45% 30.05 in 10.0 mi NNE 13.8 mph - N/A   Clear
9:15 AM 59.0 °F 35.6 °F 42% 30.05 in 10.0 mi North 12.7 mph - N/A   Clear
9:35 AM 60.8 °F 37.4 °F 42% 30.06 in 10.0 mi North 12.7 mph - N/A   Clear
9:55 AM 62.6 °F 37.4 °F 39% 30.06 in 10.0 mi NNE 11.5 mph - N/A   Clear
10:15 AM 62.6 °F 37.4 °F 39% 30.06 in 10.0 mi North 13.8 mph 18.4 mph N/A   Clear
10:35 AM 62.6 °F 37.4 °F 39% 30.06 in 10.0 mi North 13.8 mph 19.6 mph N/A   Clear
10:55 AM 64.4 °F 37.4 °F 37% 30.06 in 10.0 mi North 13.8 mph - N/A   Clear
11:15 AM 64.4 °F 35.6 °F 34% 30.06 in 10.0 mi North 16.1 mph - N/A   Clear
11:35 AM 64.4 °F 35.6 °F 34% 30.06 in 10.0 mi North 16.1 mph 19.6 mph N/A   Clear
11:55 AM 66.2 °F 33.8 °F 30% 30.05 in 10.0 mi North 15.0 mph - N/A   Clear
12:15 PM 66.2 °F 33.8 °F 30% 30.05 in 10.0 mi North 13.8 mph 17.3 mph N/A   Clear
12:35 PM 66.2 °F 32.0 °F 28% 30.04 in 10.0 mi North 12.7 mph - N/A   Clear
12:55 PM 66.2 °F 32.0 °F 28% 30.03 in 10.0 mi North 13.8 mph - N/A   Clear
1:15 PM 66.2 °F 32.0 °F 28% 30.02 in 10.0 mi North 12.7 mph - N/A   Clear
1:35 PM 68.0 °F 32.0 °F 26% 30.01 in 10.0 mi North 10.4 mph - N/A   Clear
1:55 PM 68.0 °F 32.0 °F 26% 30.01 in 10.0 mi North 10.4 mph - N/A   Clear
2:15 PM 68.0 °F 32.0 °F 26% 30.00 in 10.0 mi North 10.4 mph - N/A   Clear
2:35 PM 68.0 °F 30.2 °F 24% 30.00 in 10.0 mi North 10.4 mph - N/A   Clear
2:55 PM 68.0 °F 32.0 °F 26% 30.00 in 10.0 mi North 8.1 mph - N/A   Clear
3:15 PM 69.8 °F 30.2 °F 23% 30.00 in 10.0 mi North 9.2 mph - N/A   Clear
3:35 PM 69.8 °F 32.0 °F 25% 30.00 in 10.0 mi NNE 8.1 mph - N/A   Clear
3:55 PM 69.8 °F 26.6 °F 20% 29.99 in 10.0 mi North 6.9 mph - N/A   Clear
4:15 PM 69.8 °F 28.4 °F 21% 29.99 in 10.0 mi North 10.4 mph - N/A   Clear
4:35 PM 69.8 °F 28.4 °F 21% 29.99 in 10.0 mi NNE 9.2 mph - N/A   Clear
4:55 PM 68.0 °F 28.4 °F 23% 29.99 in 10.0 mi North 10.4 mph - N/A   Clear
5:15 PM 68.0 °F 28.4 °F 23% 29.99 in 10.0 mi NNE 11.5 mph - N/A   Clear
5:35 PM 68.0 °F 28.4 °F 23% 29.99 in 10.0 mi North 9.2 mph - N/A   Clear
5:55 PM 68.0 °F 28.4 °F 23% 30.00 in 10.0 mi North 6.9 mph - N/A   Clear
6:15 PM 66.2 °F 30.2 °F 26% 30.00 in 10.0 mi North 5.8 mph - N/A   Clear
6:35 PM 66.2 °F 28.4 °F 24% 30.01 in 10.0 mi North 6.9 mph - N/A   Clear
6:55 PM 64.4 °F 28.4 °F 26% 30.01 in 10.0 mi ENE 5.8 mph - N/A   Clear
7:15 PM 62.6 °F 28.4 °F 27% 30.01 in 10.0 mi East 6.9 mph - N/A   Clear
7:35 PM 62.6 °F 28.4 °F 27% 30.02 in 10.0 mi ENE 3.5 mph - N/A   Clear
7:55 PM 62.6 °F 28.4 °F 27% 30.02 in 10.0 mi Calm Calm - N/A   Clear
8:15 PM 62.6 °F 26.6 °F 26% 30.02 in 10.0 mi NE 4.6 mph - N/A   Clear
8:35 PM 62.6 °F 26.6 °F 26% 30.02 in 10.0 mi Calm Calm - N/A   Clear
8:55 PM 60.8 °F 26.6 °F 27% 30.03 in 10.0 mi Calm Calm - N/A   Clear
9:15 PM 59.0 °F 26.6 °F 29% 30.03 in 10.0 mi East 3.5 mph - N/A   Clear
9:35 PM 59.0 °F 26.6 °F 29% 30.04 in 10.0 mi East 3.5 mph - N/A   Clear
9:55 PM 57.2 °F 26.6 °F 31% 30.05 in 10.0 mi Calm Calm - N/A   Clear
10:15 PM 57.2 °F 26.6 °F 31% 30.05 in 10.0 mi East 5.8 mph - N/A   Clear
10:35 PM 57.2 °F 26.6 °F 31% 30.05 in 10.0 mi East 5.8 mph - N/A   Clear
10:55 PM 57.2 °F 26.6 °F 31% 30.06 in 10.0 mi Calm Calm - N/A   Clear
11:15 PM 57.2 °F 26.6 °F 31% 30.06 in 10.0 mi East 3.5 mph - N/A   Clear
11:35 PM 55.4 °F 26.6 °F 33% 30.06 in 10.0 mi East 3.5 mph - N/A   Clear
11:55 PM 55.4 °F 26.6 °F 33% 30.06 in 10.0 mi East 8.1 mph - N/A   Clear